This is the latest recevied weather packets stored in our database for station/object PA3DZX-13. If no packets are shown the sender has not sent any weather packets the latest 1 day(s).
| Time | Temp. | Humidity | Pressure | Rain* | Wind** | Luminosity | Snow |
|---|---|---|---|---|---|---|---|
| 1778000983 | 10.56° C | 85% | 1009.5 hPa | 0 mm | 2.68 m/s, 10° | - | - |
| 1778000083 | 10.56° C | 86% | 1009.5 hPa | 0 mm | 2.68 m/s, 8° | - | - |
| 1777999182 | 10.56° C | 86% | 1009.6 hPa | 0 mm | 1.79 m/s, 22° | - | - |
| 1777998281 | 10.56° C | 85% | 1009.6 hPa | 0 mm | 2.68 m/s, 23° | - | - |
| 1777997380 | 10.56° C | 85% | 1009.6 hPa | 0 mm | 2.68 m/s, 36° | - | - |
| 1777996480 | 10.56° C | 84% | 1009.8 hPa | 0 mm | 2.68 m/s, 43° | - | - |
| 1777995580 | 10.56° C | 86% | 1010 hPa | 0 mm | 2.68 m/s, 37° | - | - |
| 1777994679 | 10.56° C | 86% | 1010 hPa | 0 mm | 3.58 m/s, 30° | - | - |
| 1777993778 | 10° C | 86% | 1010 hPa | 0 mm | 4.92 m/s, 28° | - | - |
| 1777992878 | 10° C | 88% | 1010.2 hPa | 0 mm | 3.58 m/s, 25° | - | - |
| 1777991977 | 10° C | 89% | 1010.3 hPa | 0 mm | 3.58 m/s, 34° | - | - |
| 1777991076 | 10° C | 89% | 1010.3 hPa | 0 mm | 4.92 m/s, 27° | - | - |
| 1777990176 | 10° C | 90% | 1010.5 hPa | 0 mm | 4.92 m/s, 35° | - | - |
| 1777989275 | 10° C | 90% | 1010.6 hPa | 0 mm | 4.92 m/s, 29° | - | - |
| 1777988375 | 10° C | 90% | 1010.8 hPa | 0 mm | 4.92 m/s, 22° | - | - |
| 1777987474 | 10° C | 90% | 1010.8 hPa | 0 mm | 4.92 m/s, 22° | - | - |
| 1777986573 | 10° C | 92% | 1010.9 hPa | 0 mm | 3.58 m/s, 10° | - | - |
| 1777985672 | 10° C | 92% | 1010.9 hPa | 0 mm | 3.58 m/s, 10° | - | - |
| 1777984772 | 10° C | 91% | 1011 hPa | 0 mm | 3.58 m/s, 19° | - | - |
| 1777983872 | 10° C | 93% | 1011 hPa | 0 mm | 2.68 m/s, 28° | - | - |
| 1777982971 | 10° C | 93% | 1011.1 hPa | 0 mm | 3.58 m/s, 39° | - | - |
| 1777982070 | 8.89° C | 94% | 1011.2 hPa | 0 mm | 4.92 m/s, 32° | - | - |
| 1777981169 | 8.89° C | 95% | 1011.2 hPa | 0 mm | 4.92 m/s, 31° | - | - |
| 1777980269 | 8.89° C | 91% | 1011.4 hPa | 0 mm | 3.58 m/s, 41° | - | - |
| 1777979369 | 8.89° C | 92% | 1011.4 hPa | 0 mm | 4.92 m/s, 29° | - | - |
* Rain latest hour (hover to see other rain measurements)
** Current wind speed in m/s (hover to see current wind gust speed)